Regional Weather Roundup
Issued by NWS Boston, MA

Home | Current Version | Previous Version | Text Only | Print | Product List | Glossary On
Versions: 1 2 3 4 5 6 7 8 9 10 11 12 13 14 15 16 17 18 19 20 21 22 23 24 25 26 27 28 29 30 31 32 33 34 35 36 37 38 39 40 41 42 43 44 45 46 47 48 49 50
000
ASUS41 KBOX 040510
RWRBOX

REGIONAL WEATHER ROUNDUP
NATIONAL WEATHER SERVICE TAUNTON MA
100 AM EDT SAT JUL 04 2015

NOTE:  "FAIR" INDICATES FEW OR NO CLOUDS BELOW 12,000 FEET WITH NO
SIGNIFICANT WEATHER AND/OR OBSTRUCTIONS TO VISIBILITY.  THE FOLLOWING
OBSERVATION LOCATIONS DO NOT REPORT PRESENT WEATHER...PROVINCETOWN...
SMITHFIELD...BLOCK ISLAND...KEENE...AND OXFORD.

MAZALL-040600-
EASTERN MASSACHUSETTS

CITY           SKY/WX    TMP DP  RH WIND       PRES   REMARKS
BOSTON         NOT AVBL
BEVERLY        CLEAR     63  54  72 SW3       29.99R
LAWRENCE       PTCLDY    62  54  74 SW5       30.01R
BEDFORD        PTCLDY    61  55  81 CALM      29.99R
BLUE HILL        N/A     62  53  72 S9        30.00F
NORWOOD        PTCLDY    58  54  86 CALM      30.00S
MARSHFIELD     MOCLDY    64  61  88 SW3       30.02S
PLYMOUTH       MOCLDY    62  60  93 CALM      30.02S
TAUNTON        MOCLDY    60  57  89 CALM      30.01S
NEW BEDFORD    MOCLDY    62  60  93 CALM      30.01S
$$

MAZALL-040600-
CAPE COD AND THE ISLANDS

CITY           SKY/WX    TMP DP  RH WIND       PRES   REMARKS
FALMOUTH       MOCLDY    57  55  94 CALM      30.02S
HYANNIS        MOCLDY    59  55  87 CALM      30.00F
CHATHAM        MOCLDY    59  57  93 CALM      30.02F
PROVINCETOWN   MOCLDY    61   7  11 S9        30.02S
NANTUCKET      MOCLDY    58  56  93 S5        30.01F FOG
MARTHAS VNYRD  PTCLDY    53  51  93 CALM      30.02S
$$

MAZALL-040600-
CENTRAL AND WESTERN MASSACHUSETTS

CITY           SKY/WX    TMP DP  RH WIND       PRES   REMARKS
WORCESTER      MOCLDY    61  53  75 W7        30.03S
FITCHBURG      PTCLDY    59  55  87 CALM      30.01R
ORANGE         MOCLDY    57  55  93 CALM      30.01S
SPRINGFIELD    MOCLDY    59  55  85 SE1       29.98S
WESTFIELD      MOCLDY    57  53  86 S3        29.99S
NORTH ADAMS    PTCLDY    52  50  93 CALM      30.01F
PITTSFIELD     PTCLDY    52  49  89 CALM      30.01S
$$

RIZALL-040600-
RHODE ISLAND

CITY           SKY/WX    TMP DP  RH WIND       PRES   REMARKS
PROVIDENCE     MOCLDY    63  58  83 S3        30.01S
NEWPORT        CLOUDY    63  60  90 CALM      30.01S
BLOCK ISLAND   CLOUDY    64  59  82 S5        30.01S
SMITHFIELD     MOCLDY    57  48  72 SW3       30.01S
WESTERLY       MOCLDY    61  59  93 CALM      30.02R
$$

CTZALL-040600-
CONNECTICUT

CITY           SKY/WX    TMP DP  RH WIND       PRES   REMARKS
BRADLEY INTL   CLOUDY    64  56  75 S3        29.99S
HARTFORD       MOCLDY    65  58  78 CALM      29.99S
BRIDGEPORT     MOCLDY    68  61  78 SE3       29.99S
DANBURY        MOCLDY    64  55  72 CALM      30.00S
GROTON         MOCLDY    63  60  90 CALM      30.00S
NEW HAVEN      MOCLDY    65  61  87 CALM      30.00R
CHESTER        NOT AVBL
MERIDEN        MOCLDY    61  57  87 CALM      29.99F
WILLIMANTIC    PTCLDY    61  57  87 CALM      30.01F
OXFORD         MOCLDY    63  55  77 CALM      30.01S
$$

MEZ002-015-021-024-NHZ003-005-008-011-012-014-VTZ005-008-040600-
NORTHERN NEW ENGLAND

CITY           SKY/WX    TMP DP  RH WIND       PRES   REMARKS
PORTLAND ME    PTCLDY    59  54  83 CALM      29.99R
BANGOR ME      PTCLDY    57  50  77 CALM      29.97S
CONCORD NH     MOCLDY    54  52  93 CALM      30.00R
MANCHESTER NH  MOCLDY    63  58  83 CALM      29.98R
NASHUA NH      PTCLDY    60  57  89 CALM      30.01R
PORTSMOUTH NH  MOCLDY    59  53  80 SW6       29.98R
JAFFREY NH     MOCLDY    55  53  93 CALM      30.02S
KEENE NH       MOCLDY    55  52  88 CALM      30.01S
BURLINGTON VT  CLOUDY    59  53  80 E3        29.97R
MT. WASHINGTON CLOUDY    48  14  25 SW8         N/A
$$

NYZ052-076-040600-
EASTERN NEW YORK

CITY           SKY/WX    TMP DP  RH WIND       PRES   REMARKS
ALBANY         CLOUDY    61  51  70 CALM      29.97F
NEW YORK CITY  MOCLDY    71  59  65 S8        29.98R
$$

ANZALL-040600-
MARINE OBSERVATIONS

STATION/POSITION TIME  TEMP    WIND        PRES    VSBY  WAVE
                       AIR SEA DIR/SP/G                  HT/PER
                 (UTC) (F)     (DEG/KT/KT) (MB)    (MI)  (FT/S)
BOSTON BUOY      0450   63 62  200/ 10/ 10 1015.7R         1/10
BUZZARDS BAY     0400          180/  9/ 10 1016.9F
NANTUCKET SOUND  0450   66 69  210/  6/  8 1016.1F         1/ 8
MASS BAY-STELLWA 0404   63 59  190/ 10/ 10 1014.5R  1 7/8  1/ 3
ISLE OF SHOALS   0500   64     220/ 12/ 12 1014.9R
S OF BLOCK IS    0408      67                N/A           4/ 8
$$

......................KEY.........................
  SKY/WX - SKY CONDITION/PRESENT WEATHER
  TMP    - TEMPERATURE IN FAHRENHEIT
  DWPT   - DEWPOINT IN FAHRENHEIT
  RH     - RELATIVE HUMIDITY IN PERCENT
  WIND   - DIRECTION AND SPEED IN MPH
  PRES   - MEAN SEA LEVEL PRESSURE IN INCHES OF HG
  WCI    - WIND CHILL INDEX
  VSB    - VISIBILITY IN MILES
  HX     - HEAT INDEX
  TC     - TEMPERATURE IN CELSIUS
  VRB    - VARIABLE WIND DIRECTION
  N/A    - NOT AVAILABLE


USA.gov is the U.S. government's official web portal to all federal, state and local government web resources and services.